Location: Delia
(51.6321°N, 112.3740°W)
Time: 16:57:47
(UTC+00:00)

X-37B - Pass Details

Date: 09 December 2021
Orbit: 334 x 337 km, 45.0° (Epoch: 11 January)

Event Time Altitude Azimuth Distance (km) Brightness Sun altitude
Rises 01:09:39 0° 213° (SSW) 2,097 5.1 -15.9°
Reaches altitude 10° 01:12:48 10° 174° (S) 1,264 3.3 -16.4°
Maximum altitude 01:13:38 11° 157° (SSE) 1,213 3.0 -16.5°
Enters shadow 01:13:47 11° 154° (SSE) 1,214 3.0 -16.5°
